Weather in Davlekanovo

Russia / Republic of Bashkortostan     54°13′21″N   55°01′52″E
temp.,
°C
wind,
m/s
gust,
m/s
humid.,
%
clouds,
%
prec.,
mm/h
press.,
hPa
HPBL,
m
7 march, sun
sun723:00−12w2392100 0.0 101429
02:00−14wnw2393100 0.0 101334
05:00−16nw2296100 0.0 101220
08:00−19wnw129781 0.0 101120
11:00−14nw129040 0.0 1011101
14:00−10nw248524 0.0 1011503
17:00−9wnw248962 0.1 1011440
20:00−14wsw239294 0.0 101121
8 march, mon
mon823:00−17ssw349449 0.0 101236
02:00−16ssw499629 0.0 1009169
05:00−12s6149264 0.0 1007451
08:00−10ssw81693100 0.4 1003779
11:00−6ssw111888100 0.8 10011168
14:00−2sw101685100 0.2 10011460
17:00−2wsw8147999 0.8 10021260
20:00−7sw614805 0.0 1004429
9 march, tue
tue923:00−8sw511862 0.0 1006259
02:00−10ssw348933 0.0 100648
05:00−8se119767 0.4 100421
08:00−4sw41096100 0.6 1003481
11:00−5wsw61085100 0.6 1004954
14:00−5wsw697880 0.1 1006980
17:00−7wsw258990 0.1 1008189
20:00−13wnw229381 0.0 100921
10 march, wed
wed1023:00−14nnw229583 0.0 100920
02:00−14nnw3396100 0.0 100763
05:00−14nw4795100 0.1 1007153
08:00−18nw479693 0.0 1008130
11:00−15nw589295 0.1 1010334
14:00−14nw5791100 0.0 1011434
17:00−15nnw5891100 0.1 1012505
20:00−19nw4995100 0.0 1014211
11 march, thu
thu1123:00−23nw369498 0.0 1017110
02:00−25nw349482 0.0 101852
05:00−27wnw339765 0.0 102031
08:00−29wnw23970 0.0 102123
11:00−23wsw24890 0.0 1022199
14:00−17wsw35811 0.0 1022511
17:00−17wsw478827 0.0 1022502
20:00−20wsw479391 0.0 1023160